Location: Great Malvern
(52.1167°N, 2.3167°W)
Time: 16:17:19
(UTC+00:00)

Meteor 1-15 Rocket - Pass Details

Date: 18 September 2020
Orbit: 840 x 906 km, 81.2° (Epoch: 21 October)

Event Time Altitude Azimuth Distance (km) Brightness Sun altitude
Rises 19:51:56 0° 172° (S) 3,398 7.0 -15.1°
Reaches altitude 10° 19:54:24 10° 167° (SSE) 2,474 6.3 -15.5°
Maximum altitude 19:59:46 49° 94° (E) 1,102 4.4 -16.2°
Drops below altitude 10° 20:05:16 10° 21° (NNE) 2,531 6.7 -17.0°
Sets 20:07:47 0° 17° (NNE) 3,484 7.5 -17.3°
